Theta_e
320 319 318 318 318 317 317 316 316 317 317 317 317 317 318 318 318 318 319 320 319 319 320 321 323 324 325 321 317 327 352 345 331 324 322 325 323 324 322 324 326 327 329 332 331 331 331
320 319 317 317 317 316 317 316 316 317 317 317 317 317 317 317 318 318 319 319 319 318 320 321 323 325 324 312 325 328 329 329 326 324 321 325 324 327 324 324 323 326 330 330 329 329 329
319 319 318 317 317 317 317 316 316 316 316 316 317 317 317 317 318 318 318 318 318 319 320 322 325 326 319 317 324 325 325 324 326 327 323 329 328 325 325 324 327 325 322 326 326 327 326
318 318 317 317 317 317 316 315 316 316 316 316 316 316 317 317 317 317 317 317 317 319 321 324 327 324 316 325 327 324 325 323 329 327 328 329 329 324 323 327 324 320 321 316 324 326 328
318 317 317 317 317 316 316 316 316 317 317 317 317 317 317 317 317 316 315 315 317 323 325 327 322 321 315 326 318 322 323 320 324 327 328 329 325 322 324 318 315 318 313 316 320 327 326
316 316 316 316 316 316 316 317 317 317 316 317 317 317 316 316 316 314 314 315 323 322 324 327 324 318 320 316 318 319 322 322 319 322 323 322 321 319 319 316 308 313 314 316 317 323 324
316 316 316 316 316 316 317 317 316 316 316 317 316 316 316 315 315 313 314 324 321 318 323 316 317 314 316 319 322 318 321 319 319 317 312 318 314 312 315 319 317 317 317 316 319 324 320
316 316 315 316 317 316 316 316 316 316 316 316 316 315 315 314 313 312 314 321 322 322 315 323 320 319 319 319 314 317 322 315 313 309 313 311 309 315 319 319 317 317 315 315 319 320 319
316 316 316 316 317 316 316 315 315 315 315 316 315 315 314 313 312 315 321 322 327 326 313 315 321 317 317 318 313 314 317 315 311 309 310 308 311 315 314 313 313 315 314 314 314 318 321
316 316 316 315 315 316 316 315 315 315 315 315 314 314 313 311 313 325 321 327 327 327 308 311 314 316 317 318 311 319 320 315 311 308 310 310 314 312 311 308 311 310 318 317 315 314 309
316 316 316 316 315 315 315 315 315 315 315 314 313 312 311 311 313 321 327 327 327 322 300 313 313 321 318 314 314 314 321 316 309 309 310 307 309 309 308 309 311 310 317 316 315 313 312
315 315 314 315 315 315 314 314 314 314 314 314 313 312 311 318 318 322 327 327 323 306 298 308 314 312 311 313 313 315 314 318 315 310 311 310 315 313 312 313 312 314 313 315 316 314 306
315 315 315 315 315 314 314 314 314 314 313 312 311 310 310 318 323 328 326 322 306 301 311 308 309 311 310 309 310 312 310 309 306 303 304 309 309 312 314 309 312 311 309 303 303 304 303
314 315 315 315 314 313 314 314 314 313 312 311 309 308 315 322 329 327 324 313 302 308 307 313 312 312 308 310 310 309 309 306 310 309 306 303 301 309 312 309 307 308 308 304 299 300 304
315 316 315 315 314 315 314 314 314 313 312 311 308 323 323 329 327 326 317 304 305 308 312 309 311 307 308 310 311 310 308 308 309 310 304 304 304 313 312 312 311 307 305 311 305 307 304
314 314 314 314 315 315 315 315 314 313 312 310 316 327 325 329 329 322 312 304 311 312 311 311 305 309 305 308 308 309 309 311 309 312 313 309 303 311 312 313 312 309 311 304 304 298 298
313 314 315 315 315 315 315 315 314 312 311 309 319 323 325 328 326 316 307 310 312 314 311 307 306 307 309 309 310 308 307 311 312 312 314 311 308 307 311 308 306 307 305 306 306 305 299
314 314 315 315 315 315 315 315 313 311 309 310 324 316 327 327 312 314 310 314 303 313 315 310 310 310 309 311 309 309 308 310 314 313 308 312 308 303 305 312 313 311 308 307 303 302 305
314 314 314 315 315 316 314 315 313 311 310 315 322 323 329 325 309 313 316 313 315 312 312 311 310 310 311 309 307 310 312 315 315 312 309 311 306 301 302 307 311 308 309 309 308 307 307
314 314 314 314 315 315 315 314 313 311 310 313 321 315 321 321 318 313 313 313 313 317 314 313 314 314 310 309 312 310 313 315 317 316 326 319 308 305 299 304 308 306 308 309 307 304 304
314 314 314 314 315 315 315 315 313 312 311 314 321 318 320 313 315 316 315 314 311 310 316 316 314 312 311 308 309 309 312 315 318 323 321 315 305 306 307 308 308 307 307 307 306 306 304
314 314 314 314 315 315 315 315 314 312 309 317 314 314 315 314 314 312 309 310 309 311 314 312 313 314 314 309 310 309 313 315 316 319 317 316 308 307 304 307 308 305 307 308 309 308 307
314 314 314 314 314 315 315 315 314 312 311 317 319 318 315 308 310 310 311 311 311 314 315 317 316 315 316 315 317 320 321 322 321 316 311 309 309 309 302 307 306 302 306 307 309 311 309
314 314 314 314 314 314 314 314 315 314 311 316 318 313 310 307 310 310 311 311 310 311 309 313 316 316 319 324 323 320 319 318 316 314 314 307 304 309 307 309 298 307 312 311 309 311 313
313 313 314 314 314 314 314 314 315 314 313 314 319 314 310 306 310 310 311 311 312 313 311 310 311 315 323 321 313 308 309 310 312 316 312 313 309 309 303 303 308 310 311 310 308 309 314
313 313 313 314 314 314 314 314 314 314 313 314 317 319 311 306 307 310 308 310 308 309 310 312 316 317 313 313 309 304 302 306 305 308 316 315 314 310 307 301 297 309 315 318 315 306 315
312 313 313 313 313 314 314 314 314 314 314 313 316 322 313 306 310 311 308 308 311 311 310 312 313 314 314 308 306 306 305 311 305 304 306 306 308 306 305 302 304 313 315 320 304 309 317
312 312 313 313 313 314 314 314 314 314 314 313 315 321 315 309 310 312 312 309 310 309 306 312 311 312 313 309 308 307 307 306 305 307 304 306 304 302 306 304 301 318 318 313 315 321 321
312 312 313 313 312 313 313 313 313 314 314 313 313 321 321 311 310 315 314 315 313 313 310 311 311 312 314 312 311 312 309 312 308 302 313 305 310 308 311 312 318 320 319 320 324 327 337
Wind_Speed
9 11 13 12 12 12 12 13 13 13 13 14 14 14 15 16 18 19 19 19 19 20 20 19 19 17 11 9 14 10 8 7 8 11 15 15 16 15 15 2 10 11 7 16 5 2 10
11 11 12 12 13 13 12 14 13 14 14 14 15 15 15 16 17 19 19 19 20 20 19 19 17 15 7 12 5 11 11 10 13 13 16 16 15 16 16 6 8 3 14 21 3 8 12
11 11 12 12 12 12 12 12 14 13 14 14 14 15 16 17 18 19 20 20 22 21 19 17 13 7 11 17 2 2 7 12 13 14 16 18 18 17 15 15 10 8 7 13 12 8 4
11 11 12 12 12 13 12 13 14 14 14 14 15 15 16 18 19 20 21 22 23 21 17 13 9 9 10 8 13 11 10 13 10 10 16 17 12 11 19 18 7 14 14 14 10 5 16
11 11 12 12 12 13 13 12 14 13 13 13 14 15 15 16 18 20 22 24 22 17 11 10 7 10 15 2 11 13 13 14 14 13 13 11 8 15 17 15 11 15 14 14 10 13 18
11 11 12 13 13 12 13 13 13 13 14 14 14 15 15 15 17 19 25 25 10 10 7 9 11 10 12 13 10 17 16 15 14 14 15 12 11 14 15 15 13 8 12 16 5 9 13
11 11 12 12 13 12 13 13 13 14 16 16 16 17 18 18 18 18 15 3 7 8 13 13 11 14 6 6 5 8 12 13 16 14 17 17 15 17 19 19 19 15 4 14 14 10 6
11 11 11 12 13 12 12 13 14 14 16 16 17 18 19 21 22 21 10 8 8 7 11 20 20 17 5 5 8 14 16 17 17 17 17 17 19 20 21 21 21 20 18 12 9 9 3
11 11 12 14 13 13 13 12 14 14 15 16 17 18 20 22 26 12 10 12 8 10 8 16 23 19 13 12 13 14 20 19 17 20 20 19 19 21 19 18 20 20 19 8 14 3 11
12 11 11 12 13 13 13 13 13 14 14 15 16 18 18 24 8 10 6 5 7 6 8 13 13 12 17 14 16 19 18 18 20 22 21 20 20 21 14 16 19 20 18 12 16 7 10
12 12 13 13 13 13 14 14 15 14 15 15 17 18 17 10 14 6 8 6 8 6 8 15 13 6 10 13 2 19 15 16 22 21 20 20 22 21 19 14 16 19 13 16 13 13 12
13 14 14 13 14 14 14 14 14 14 16 16 15 16 17 6 8 13 11 8 7 7 11 10 11 11 15 16 18 10 16 15 17 20 19 20 21 22 17 17 17 14 18 20 15 11 11
14 14 14 13 13 13 14 14 15 15 16 17 16 15 9 11 2 7 6 7 7 11 4 11 12 15 16 16 18 13 15 16 16 14 18 20 21 21 16 17 15 18 17 12 14 12 11
14 13 13 13 14 14 14 16 15 16 18 19 19 17 8 9 8 8 7 8 9 9 13 8 4 11 16 18 18 19 16 16 20 21 14 18 16 20 20 16 17 19 19 14 13 15 16
14 13 14 13 13 14 15 15 16 18 19 21 26 6 6 7 11 7 8 10 10 9 9 4 7 9 12 14 16 16 19 17 18 20 21 17 18 18 23 20 19 21 19 17 22 22 16
14 14 14 14 14 15 16 17 18 20 20 17 7 9 6 8 9 7 8 15 20 7 5 7 12 16 15 16 13 15 14 17 20 20 21 19 19 18 11 20 20 20 18 16 12 17 20
14 14 14 14 15 15 16 18 19 21 23 16 6 8 8 9 7 7 10 15 5 6 4 7 13 18 12 16 6 10 18 14 14 17 18 19 17 18 14 14 16 16 17 21 18 15 15
15 15 15 15 15 15 16 17 18 20 29 3 8 5 8 8 7 9 12 12 6 9 10 8 13 14 17 17 9 13 19 8 5 14 17 17 12 16 23 16 19 18 21 22 14 18 15
14 14 15 15 15 16 17 17 17 16 15 8 6 2 7 8 9 10 13 6 9 9 12 9 10 12 15 15 15 13 18 16 2 3 7 14 12 14 19 18 18 13 18 20 19 21 15
14 15 15 16 15 16 17 18 17 14 12 6 7 4 7 7 10 14 15 11 10 9 6 13 14 12 15 13 13 16 17 16 6 7 4 10 18 16 15 18 16 17 19 22 24 15 16
16 15 16 16 16 17 17 19 19 18 16 5 6 5 9 5 7 10 10 12 10 14 7 8 8 14 16 14 15 17 18 17 5 15 9 12 18 20 22 19 20 22 20 21 21 22 20
16 17 16 16 16 17 18 19 20 22 25 5 6 7 12 12 14 13 8 12 13 15 11 14 12 13 14 15 19 17 15 11 6 7 5 12 15 18 20 21 20 22 24 23 23 23 22
16 16 17 16 16 16 17 18 19 22 21 6 9 10 8 9 14 12 9 10 13 11 10 15 14 10 19 12 10 14 15 4 10 5 5 10 13 14 19 20 21 23 24 24 22 20 23
15 16 16 17 17 17 17 17 18 17 15 8 7 7 7 10 13 13 12 12 14 14 15 16 19 13 17 19 15 16 16 10 12 11 13 7 22 17 18 17 26 17 21 22 24 21 17
15 15 16 16 17 17 16 16 16 16 14 9 9 6 6 9 13 16 16 14 11 14 15 17 19 21 18 12 12 14 14 18 21 25 21 20 20 17 11 10 12 31 21 20 23 22 20
15 15 16 16 17 16 16 15 15 14 14 9 9 4 6 8 7 19 15 15 13 12 15 16 17 13 15 12 13 19 15 17 15 3 1 15 18 11 3 6 9 7 31 33 27 19 22
15 15 15 15 15 16 15 15 14 14 13 9 7 6 5 9 15 13 13 12 13 15 12 13 13 8 12 11 14 13 15 3 5 7 7 9 8 15 13 9 9 12 18 29 22 12 17
15 15 15 15 14 14 15 14 14 12 12 8 9 7 5 7 18 21 18 15 13 12 12 13 11 9 10 12 11 13 15 4 4 2 12 9 5 2 12 16 19 14 15 16 15 29 17
14 14 14 14 15 14 14 14 12 11 10 8 7 7 3 7 14 23 25 24 26 24 15 15 14 18 8 7 10 6 8 5 7 5 9 9 6 10 17 7 18 13 16 21 23 20 5
Wind_Direction
3 11 6 356 357 355 353 351 346 345 342 340 339 337 334 332 329 326 324 324 320 318 316 315 317 323 314 234 259 138 164 172 204 216 238 248 264 262 270 9 303 244 39 301 187 253 240
4 1 4 351 352 351 351 347 343 344 341 340 338 335 333 331 326 323 322 319 315 313 309 308 312 315 250 250 46 145 209 178 219 211 236 248 266 277 312 304 288 354 177 238 291 221 251
356 358 355 348 348 347 345 347 344 341 338 338 335 334 333 329 325 320 318 312 310 307 303 300 301 282 264 245 321 246 222 232 219 218 235 239 253 282 268 289 231 275 265 253 1 296 181
360 355 348 349 345 345 349 346 341 338 335 336 335 334 331 328 324 321 315 311 308 302 295 286 278 250 268 261 255 242 249 245 247 230 241 270 282 275 279 288 251 263 256 251 204 316 294
356 352 349 347 348 347 342 340 338 335 333 333 332 329 328 325 323 318 313 306 301 294 272 282 238 229 260 157 233 236 228 233 229 232 242 262 289 263 254 254 268 239 245 231 178 206 251
352 349 347 345 345 338 334 333 333 334 332 332 332 330 326 322 322 320 316 290 285 298 226 224 260 260 244 241 221 213 215 232 244 225 232 230 242 247 243 258 244 307 266 345 231 224 227
350 348 345 343 340 339 337 335 336 335 333 333 332 331 326 322 321 325 328 252 203 193 232 228 192 231 144 218 40 207 204 215 238 238 229 228 236 236 240 244 263 271 176 229 279 195 201
348 346 342 336 331 328 333 334 334 332 331 333 332 330 327 323 319 316 285 256 50 339 291 233 253 230 259 313 233 222 218 212 218 232 221 234 227 240 249 261 261 261 264 257 220 256 248
348 343 341 337 341 345 340 340 334 332 331 331 331 328 327 322 317 284 239 298 345 320 260 266 209 229 228 218 243 214 200 209 218 228 232 232 239 219 241 253 258 267 259 255 262 134 261
345 341 340 346 344 338 336 335 334 329 328 329 328 326 327 325 294 326 252 44 286 309 274 205 189 226 220 216 240 250 187 218 229 231 234 250 239 263 224 234 257 252 260 258 284 279 277
348 344 343 349 346 340 336 338 331 329 328 327 326 324 320 328 314 277 22 300 327 252 272 131 151 92 175 201 276 198 212 207 227 229 232 242 244 254 259 250 253 260 270 250 233 271 272
349 351 348 343 338 340 337 328 328 327 325 321 318 313 322 235 212 259 306 303 251 231 245 154 145 193 208 202 247 200 210 210 227 241 248 245 265 249 237 252 255 278 260 266 262 242 254
351 345 340 336 341 339 330 331 328 329 324 315 305 298 287 307 335 360 298 252 226 249 101 155 179 191 202 200 218 220 193 205 224 223 239 249 242 261 245 252 240 240 244 245 244 230 242
346 341 341 344 344 337 336 334 330 325 319 312 306 304 225 245 298 247 254 235 251 230 230 47 360 182 214 221 190 222 207 222 217 245 247 225 234 221 247 225 251 234 239 243 238 252 250
344 348 349 339 336 336 336 334 328 322 321 317 309 213 233 229 221 257 250 231 236 327 360 22 264 248 237 234 239 194 219 226 225 212 249 259 241 229 210 211 225 250 243 249 265 271 270
347 345 345 342 342 340 338 333 330 326 323 328 302 264 176 136 169 224 243 260 293 19 345 323 281 283 246 203 211 243 230 221 244 225 218 253 272 282 244 201 219 238 260 235 233 264 273
349 346 341 345 344 339 338 337 333 329 325 330 243 236 112 153 187 232 249 245 291 35 288 271 272 291 289 295 276 217 241 242 227 234 236 238 246 263 254 209 222 219 235 255 269 235 249
350 349 350 347 341 338 342 338 335 335 330 235 273 274 146 171 222 227 243 264 4 296 280 245 272 285 302 302 294 266 268 241 294 213 253 239 242 244 257 250 217 224 244 226 246 250 264
350 351 351 345 342 345 345 341 338 339 358 318 267 233 162 214 253 248 265 227 267 270 271 257 254 253 271 264 274 271 277 258 31 263 268 272 217 255 263 246 242 235 234 256 241 251 246
356 354 352 350 344 344 342 340 337 336 337 300 277 276 146 212 257 286 288 312 280 228 245 290 296 283 273 263 270 277 280 262 219 224 358 300 278 249 244 247 260 228 223 234 250 243 256
353 354 353 351 349 347 344 341 337 336 331 284 251 329 347 276 243 251 257 287 299 297 257 227 259 247 273 270 259 252 252 279 40 15 337 256 260 266 272 272 268 266 261 215 237 253 249
353 353 356 352 350 347 345 344 342 340 332 247 310 348 350 304 287 275 272 265 273 277 275 271 238 254 249 234 263 276 291 307 42 1 326 319 271 263 269 267 260 262 267 263 217 227 251
353 353 353 355 351 349 348 349 350 352 337 317 16 329 298 291 292 285 273 296 313 313 290 295 303 289 282 287 305 318 318 357 160 166 357 15 329 314 250 251 258 251 246 259 259 225 221
350 352 351 353 353 351 350 350 354 358 2 311 334 315 287 293 301 301 324 311 303 297 305 302 300 266 275 311 316 308 296 280 160 159 135 91 303 290 270 283 241 258 254 248 254 267 237
348 350 350 350 351 351 350 350 351 353 353 320 311 324 306 293 309 301 298 305 315 291 257 259 264 276 296 301 287 281 273 253 248 214 191 173 200 260 276 266 332 305 254 252 237 249 260
344 347 348 349 349 350 348 350 349 349 352 317 303 4 293 296 226 348 312 298 290 289 289 277 259 236 255 261 265 262 257 264 265 240 257 233 223 294 209 212 257 237 281 278 271 231 229
340 341 343 344 344 346 345 344 345 343 345 327 296 298 291 291 271 313 309 326 315 314 309 301 298 278 215 244 255 266 270 11 19 337 328 298 284 233 228 241 251 221 278 292 250 244 222
333 333 335 337 338 339 340 339 334 337 340 332 306 281 318 287 292 278 286 287 280 254 259 280 295 270 274 248 246 270 274 93 113 236 271 260 271 2 322 273 247 42 346 330 344 292 227
328 327 327 328 332 334 333 330 324 321 324 328 277 347 334 264 280 305 290 277 261 265 280 286 283 292 289 321 261 295 292 146 162 237 230 272 10 307 210 273 332 345 334 309 289 275 59